PAWGPAKT

Guest
Details From PAWG - WRANGELL
To PAKT - KETCHIKAN INTL
Flight Number -
Tags generated
Created
Modified
Stats Distance 74 nm / 138 km
Max Altitude 2,000 ft / 610 m
Waypoints 3
Social Downloads 0
Likes 0
Share VATSIM

Download

Looking for another format? Having issues loading an existing format? Contact us
Advertisement - Login to hide

Notes

Basic altitude profile: - Ascent Rate: 2500ft/min - Ascent Speed: 250kts - Cruise Altitude: 15000ft - Cruise Speed: 250kts - Descent Rate: 1500ft/min - Descent Speed: 250kts Options: - Use NATs: yes - Use PACOTS: yes - Use low airways: yes - Use high airways: yes

Route

PAWG GESTI PAKT

ID Type Via Altitude Latitude Longitude Leg Dist Tot Dist Heading (true) Name
O PAWG APT - 0 ft / 0 m 56.48432˚ -132.36983˚ - 0 nm - WRANGELL
GESTI FIX - 2,000 ft / 610 m 55.43263˚ -131.96400˚ 64 nm 64 nm 168° / 168° -
O PAKT APT - 0 ft / 0 m 55.35554˚ -131.71374˚ 9 nm 74 nm 118° / 119° KETCHIKAN INTL

Altitude Profile

Advertisement - Login to hide

PAWG

Details ICAO PAWG (WRG)
Name WRANGELL
Region USA (Alaska)
Timezone America/Juneau (UTC-8.0)
Stats Elevation 44 ft / 13 m (AMSL)
Location 56.484324° -132.369832°
Runways 1
Magnetic Variation 18.697° E

METAR

PAWG 220156Z 11015G21KT 10SM BKN030 BKN045 OVC060 12/08 A2987

Decode

TAF

PAWG 212328Z 2200/2224 11012G22KT 6SM -RA BR SCT015 OVC030 WS020/15035KT FM220300 12009KT 6SM -RA BR SCT020 OVC030 FM221200 12008KT P6SM -SHRA BKN025 AMD LTD TO CLD VIS AND WIND 2206/2215

Decode

Departure Runways

ID Width Length Bearing (true) Bearing (mag) Surface Threshold Offset Overrun Length
10 150 ft / 46 m 5,983 ft / 1,824 m 121.43° 102.73° Asphalt 0 ft / 0 m 0 ft / 0 m
28 150 ft / 46 m 5,983 ft / 1,824 m 301.45° 282.75° Asphalt 0 ft / 0 m 0 ft / 0 m

PAKT

Details ICAO PAKT (KTN)
Name KETCHIKAN INTL
Region USA (Alaska)
Timezone Unknown (UTC+0.0)
Stats Elevation 88 ft / 27 m (AMSL)
Location 55.355545° -131.713737°
Runways 1
Magnetic Variation 18.430° E

METAR

PAKT 220153Z 15012G19KT 3SM -RA BR BKN019 OVC024 11/09 A2992

Decode

TAF

TAF PAKT 212328Z 2200/2224 14018G28KT P6SM -RA FEW008 BKN020 OVC035 WS020/16045KT TEMPO 2200/2203 4SM RA BR SCT007 OVC015 FM220300 14015G25KT 4SM RA BR OVC025 WS020/16045KT FM221200 14011KT 6SM -SHRA SCT015 OVC025 FM221800 13008KT 5SM -SHRA BR BKN015 OVC025 AMD LTD TO CLD VIS AND WIND 2206/2215

Decode

Destination Runways

ID Width Length Bearing (true) Bearing (mag) Surface Threshold Offset Overrun Length
11 150 ft / 46 m 7,485 ft / 2,281 m 135.66° 117.23° Asphalt 0 ft / 0 m 200 ft / 61 m
29 150 ft / 46 m 7,485 ft / 2,281 m 315.68° 297.25° Asphalt 0 ft / 0 m 100 ft / 30 m

Approach Navaids

Runway Type Ident Frequency Range Bearing (true) Bearing (mag) Slope Elevation
11 Localiser IECH 109.30 MHz 18 nm / 33 km 135.69° 117.26° - 66 ft / 20 m (AMSL)
11 Glidescope IECH 109.30 MHz 10 nm / 19 km 135.67° 117.24° 3.61° 76 ft / 23 m (AMSL)
11 DME IECH 109.30 MHz 18 nm / 33 km - - - 98 ft / 30 m (AMSL)

Popular Alternatives